| time (UTC) | temp F | wind direction | speed knots | gust knots | rain 1hr in | rain 24hr in | rain mn in | humidity % | barometer mb |
| 20260507154519 | 51 | 248 | 1.7 | 5.2 | 0.00 | 0.00 | 0.00 | 73 | 1021.7 |
| 20260507153016 | 51 | 336 | 3.5 | 8.7 | 0.00 | 0.00 | 0.00 | 74 | 1021.9 |
| 20260507151513 | 50 | 31 | 3.5 | 7.8 | 0.00 | 0.00 | 0.00 | 76 | 1021.8 |
| 20260507150013 | 50 | 296 | 0.9 | 7.0 | 0.00 | 0.00 | 0.00 | 76 | 1021.7 |
| 20260507144528 | 49 | 320 | 3.5 | 7.8 | 0.00 | 0.00 | 0.00 | 76 | 1021.7 |
| 20260507143038 | 49 | 276 | 2.6 | 5.2 | 0.00 | 0.00 | 0.00 | 76 | 1021.8 |
| 20260507141520 | 49 | 337 | 2.6 | 9.6 | 0.00 | 0.00 | 0.00 | 75 | 1021.8 |
| 20260507140020 | 49 | 30 | 4.3 | 8.7 | 0.00 | 0.00 | 0.00 | 76 | 1021.6 |
| 20260507134514 | 49 | 267 | 2.6 | 7.8 | 0.00 | 0.00 | 0.00 | 77 | 1021.4 |
| 20260507133010 | 49 | 335 | 1.7 | 7.0 | 0.00 | 0.00 | 0.00 | 77 | 1021.2 |
| 20260507131512 | 49 | 343 | 2.6 | 8.7 | 0.00 | 0.00 | 0.00 | 77 | 1021.1 |
| 20260507130029 | 49 | 347 | 4.3 | 8.7 | 0.00 | 0.00 | 0.00 | 77 | 1021.1 |
| 20260507124525 | 49 | 308 | 1.7 | 7.8 | 0.00 | 0.00 | 0.00 | 77 | 1021.2 |
| 20260507123023 | 49 | 31 | 3.5 | 8.7 | 0.00 | 0.00 | 0.00 | 77 | 1021.2 |
| 20260507121520 | 49 | 338 | 3.5 | 7.8 | 0.00 | 0.00 | 0.00 | 77 | 1021.3 |
| 20260507120016 | 49 | 336 | 2.6 | 7.8 | 0.00 | 0.00 | 0.00 | 77 | 1021.4 |
| 20260507114521 | 49 | 294 | 3.5 | 7.0 | 0.00 | 0.00 | 0.00 | 78 | 1021.4 |
| 20260507113019 | 49 | 16 | 2.6 | 8.7 | 0.00 | 0.00 | 0.00 | 77 | 1021.6 |
| 20260507111516 | 49 | 331 | 1.7 | 4.3 | 0.00 | 0.00 | 0.00 | 78 | 1021.5 |
| 20260507110015 | 50 | 325 | 3.5 | 7.8 | 0.00 | 0.00 | 0.00 | 77 | 1021.6 |
| 20260507104525 | 50 | 309 | 3.5 | 7.8 | 0.00 | 0.00 | 0.00 | 77 | 1021.6 |
| 20260507103020 | 51 | 28 | 4.3 | 9.6 | 0.00 | 0.00 | 0.00 | 76 | 1021.8 |
| 20260507101518 | 51 | 323 | 3.5 | 8.7 | 0.00 | 0.00 | 0.00 | 76 | 1021.9 |
| 20260507100034 | 51 | 320 | 2.6 | 9.6 | 0.00 | 0.00 | 0.00 | 76 | 1021.9 |
| 20260507094521 | 51 | 298 | 4.3 | 9.6 | 0.00 | 0.00 | 0.00 | 76 | 1022.0 |
| 20260507093022 | 51 | 336 | 2.6 | 8.7 | 0.00 | 0.00 | 0.00 | 76 | 1022.0 |
| 20260507091522 | 52 | 325 | 1.7 | 7.0 | 0.00 | 0.00 | 0.00 | 77 | 1022.2 |
| 20260507090017 | 52 | 337 | 3.5 | 9.6 | 0.00 | 0.00 | 0.00 | 76 | 1022.3 |
| 20260507084521 | 52 | 350 | 1.7 | 7.0 | 0.00 | 0.00 | 0.00 | 77 | 1022.2 |
| 20260507083017 | 52 | 333 | 2.6 | 6.1 | 0.00 | 0.00 | 0.00 | 78 | 1022.2 |
| 20260507081529 | 53 | 313 | 4.3 | 10.4 | 0.00 | 0.00 | 0.00 | 78 | 1022.2 |
| 20260507080025 | 53 | 321 | 3.5 | 7.8 | 0.00 | 0.00 | 0.00 | 77 | 1022.1 |
| 20260507074525 | 53 | 338 | 0.9 | 3.5 | 0.00 | 0.00 | 0.00 | 77 | 1022.1 |
| 20260507073024 | 53 | 294 | 2.6 | 5.2 | 0.00 | 0.00 | 0.00 | 77 | 1022.1 |
| 20260507071528 | 53 | 351 | 0.9 | 5.2 | 0.00 | 0.00 | 0.00 | 77 | 1022.0 |
| 20260507070026 | 53 | 324 | 1.7 | 7.8 | 0.00 | 0.00 | 0.00 | 77 | 1021.9 |
| 20260507064550 | 53 | 280 | 0.9 | 7.8 | 0.00 | 0.00 | 0.00 | 77 | 1022.0 |
| 20260507063034 | 53 | 306 | 4.3 | 7.8 | 0.00 | 0.00 | 0.00 | 77 | 1022.1 |
| 20260507061529 | 53 | 347 | 3.5 | 7.8 | 0.00 | 0.00 | 0.00 | 78 | 1022.2 |
| 20260507060029 | 53 | 317 | 3.5 | 9.6 | 0.00 | 0.00 | 0.00 | 78 | 1022.1 |
| 20260507054525 | 53 | 328 | 4.3 | 9.6 | 0.00 | 0.00 | 0.00 | 78 | 1022.1 |
| 20260507053025 | 53 | 325 | 5.2 | 8.7 | 0.00 | 0.00 | 0.00 | 78 | 1022.2 |
| 20260507051522 | 53 | 5 | 2.6 | 7.8 | 0.00 | 0.00 | 0.00 | 79 | 1022.2 |
| 20260507050038 | 53 | 309 | 1.7 | 7.8 | 0.00 | 0.00 | 0.00 | 78 | 1022.2 |
| 20260507044513 | 54 | 9 | 3.5 | 7.8 | 0.00 | 0.00 | 0.00 | 78 | 1022.2 |
| 20260507043010 | 54 | 9 | 4.3 | 9.6 | 0.00 | 0.00 | 0.00 | 77 | 1022.2 |
| 20260507041520 | 55 | 351 | 5.2 | 13.0 | 0.00 | 0.00 | 0.00 | 76 | 1022.0 |
| 20260507040011 | 55 | 334 | 4.3 | 13.9 | 0.00 | 0.00 | 0.00 | 76 | 1022.0 |
| 20260507034508 | 55 | 304 | 5.2 | 12.2 | 0.00 | 0.00 | 0.00 | 75 | 1021.8 |
| 20260507033025 | 56 | 343 | 5.2 | 15.6 | 0.00 | 0.00 | 0.00 | 75 | 1021.7 |
| 20260507031520 | 56 | 352 | 4.3 | 14.8 | 0.00 | 0.00 | 0.00 | 74 | 1021.5 |
| 20260507030025 | 57 | 11 | 5.2 | 9.6 | 0.00 | 0.00 | 0.00 | 75 | 1021.3 |
| 20260507024519 | 57 | 325 | 5.2 | 10.4 | 0.00 | 0.00 | 0.00 | 74 | 1021.1 |
| 20260507023008 | 58 | 324 | 6.1 | 13.0 | 0.00 | 0.00 | 0.00 | 73 | 1021.0 |
| 20260507021515 | 59 | 9 | 4.3 | 10.4 | 0.00 | 0.00 | 0.00 | 73 | 1021.0 |
| 20260507020012 | 59 | 9 | 3.5 | 10.4 | 0.00 | 0.00 | 0.00 | 74 | 1021.1 |
| 20260507014514 | 60 | 315 | 1.7 | 9.6 | 0.00 | 0.00 | 0.00 | 73 | 1021.2 |
| 20260507013018 | 60 | 331 | 4.3 | 12.2 | 0.00 | 0.00 | 0.00 | 72 | 1021.3 |
| 20260507011517 | 61 | 5 | 7.0 | 11.3 | 0.00 | 0.00 | 0.00 | 71 | 1021.3 |
| 20260507010015 | 61 | 340 | 6.1 | 11.3 | 0.00 | 0.00 | 0.00 | 70 | 1021.3 |
| 20260507004526 | 62 | 360 | 6.1 | 11.3 | 0.00 | 0.00 | 0.00 | 71 | 1021.1 |
| 20260507003023 | 63 | 360 | 6.1 | 10.4 | 0.00 | 0.00 | 0.00 | 69 | 1021.0 |
| 20260507001520 | 63 | 350 | 3.5 | 8.7 | 0.00 | 0.00 | 0.00 | 69 | 1021.0 |
| 20260507000017 | 63 | 9 | 3.5 | 10.4 | 0.00 | 0.00 | 0.00 | 67 | 1021.0 |
| 20260506234517 | 64 | 333 | 5.2 | 8.7 | 0.00 | 0.00 | 0.00 | 68 | 1021.0 |
| 20260506233022 | 65 | 310 | 4.3 | 9.6 | 0.00 | 0.00 | 0.00 | 70 | 1020.9 |
| 20260506231514 | 65 | 302 | 1.7 | 7.0 | 0.00 | 0.00 | 0.00 | 69 | 1021.0 |
| 20260506230029 | 65 | 333 | 2.6 | 6.1 | 0.00 | 0.00 | 0.00 | 68 | 1021.0 |
| 20260506224532 | 65 | 337 | 2.6 | 7.0 | 0.00 | 0.00 | 0.00 | 71 | 1021.0 |
| 20260506223022 | 64 | 55 | 2.6 | 4.3 | 0.00 | 0.00 | 0.00 | 72 | 1021.3 |
| 20260506221522 | 64 | 63 | 2.6 | 6.1 | 0.00 | 0.00 | 0.00 | 74 | 1021.3 |
| 20260506220023 | 64 | 298 | 0.0 | 4.3 | 0.00 | 0.00 | 0.00 | 72 | 1021.3 |
| 20260506214516 | 63 | 334 | 0.9 | 7.0 | 0.00 | 0.00 | 0.00 | 73 | 1021.4 |
| 20260506213030 | 63 | 71 | 2.6 | 6.1 | 0.00 | 0.00 | 0.00 | 74 | 1021.4 |
| 20260506211530 | 63 | 13 | 1.7 | 3.5 | 0.00 | 0.00 | 0.00 | 72 | 1021.4 |
| 20260506210031 | 62 | 327 | 1.7 | 4.3 | 0.00 | 0.00 | 0.00 | 76 | 1021.7 |
| 20260506204532 | 62 | 41 | 0.9 | 3.5 | 0.00 | 0.00 | 0.00 | 74 | 1021.7 |
| 20260506203023 | 61 | 289 | 0.9 | 2.6 | 0.00 | 0.00 | 0.00 | 75 | 1021.8 |
| 20260506201529 | 61 | 300 | 0.0 | 2.6 | 0.00 | 0.00 | 0.00 | 74 | 1021.6 |
| 20260506200019 | 61 | 32 | 0.9 | 2.6 | 0.00 | 0.00 | 0.00 | 74 | 1021.6 |
| 20260506194519 | 59 | 148 | 0.9 | 2.6 | 0.00 | 0.00 | 0.00 | 77 | 1021.8 |
| 20260506193026 | 59 | 276 | 0.0 | 2.6 | 0.00 | 0.00 | 0.00 | 80 | 1021.9 |
| 20260506191526 | 58 | 311 | 0.9 | 2.6 | 0.00 | 0.00 | 0.00 | 80 | 1022.1 |
| 20260506190030 | 58 | 311 | 0.9 | 1.7 | 0.00 | 0.00 | 0.00 | 81 | 1022.0 |
| 20260506184526 | 58 | 229 | 0.9 | 1.7 | 0.00 | 0.00 | 0.00 | 80 | 1021.9 |
| 20260506183023 | 58 | 250 | 1.7 | 2.6 | 0.00 | 0.00 | 0.00 | 80 | 1021.8 |
| 20260506181526 | 58 | 5 | 0.0 | 1.7 | 0.00 | 0.00 | 0.00 | 80 | 1021.7 |
| 20260506180031 | 58 | 283 | 0.0 | 2.6 | 0.00 | 0.00 | 0.00 | 79 | 1021.8 |
| 20260506174532 | 57 | 209 | 0.9 | 1.7 | 0.00 | 0.00 | 0.00 | 81 | 1021.7 |
| 20260506173029 | 57 | 289 | 0.9 | 4.3 | 0.00 | 0.00 | 0.00 | 79 | 1021.6 |
| 20260506171538 | 57 | 360 | 1.7 | 2.6 | 0.00 | 0.00 | 0.00 | 79 | 1021.5 |
| 20260506170026 | 57 | 319 | 0.9 | 2.6 | 0.00 | 0.00 | 0.00 | 81 | 1021.6 |
| 20260506164505 | 56 | 270 | 1.7 | 3.5 | 0.00 | 0.00 | 0.00 | 80 | 1021.5 |
| 20260506163010 | 55 | 316 | 0.9 | 2.6 | 0.00 | 0.00 | 0.00 | 81 | 1021.7 |
| 20260506161509 | 55 | 311 | 1.7 | 4.3 | 0.00 | 0.00 | 0.00 | 81 | 1021.6 |
| 20260506160005 | 55 | 98 | 0.0 | 2.6 | 0.00 | 0.00 | 0.00 | 82 | 1021.2 |